NOAA 16 DEB

Satellite information

Favourite Embed

Satellite Type and Status

DEBRISIN ORBIT

Key statistics

Satellite NOAA 16 DEB at a glance.

Uptime

9055

Days in orbit

Revolutions

≈ 14.4

Per day

Orbit

SSO

Sun Synchronous Orbit

Inclination

98.9

Latest

Satellite identification and parameters

Extended collection of information and parameters for NOAA 16 DEB.

Object identification

Identified? True

Debris? True

Object name: NOAA 16 DEB

International designator: 2000-055PN

Object number (NORAD): 41708

Object ID (CCSDS): 41708

Country: UNITED STATES OF AMERICA (US)

Current information (Y/N): Y

RCS size: SMALL

Orbital parameters

Period: 100.086 minutes

Inclination: 98.857 deg

SMA: 7140.738 km

Apoapsis: 773.023 km

Periapsis: 752.184 km

RAAN: 301.9545 deg

Eccentricy: 0.0014592

Argument of periapsis: 98.8939 deg

Mean anomaly: 261.39 deg

Mean motion: 14.38759063 rev/day

Mean motion (dot): 0.00005388 rev/day2

B* drag term: 0.0017662 1/REarth

Two-line elements (TLE)

Creation date: July 3, 2025, 5:26 p.m.

Reference frame: TEME

Reference center: EARTH

Epoch: July 3, 2025, 2:11 p.m. UTC

TLE line 0: 0 NOAA 16 DEB

TLE line 1: 1 41708U 00055PN 25184.59113776 .00005388 00000-0 17662-2 0 9997

TLE line 2: 2 41708 98.8570 301.9545 0014592 98.8939 261.3900 14.38759063476715

Live tracking on map

Real-time ground track for satellite NOAA 16 DEB.

In-orbit conjunctions

A list of the most updated potential collisions computed for object NOAA 16 DEB.

Target Orbit TCA Probability of collision Miss distance Type
COSMOS 1867 COOLANT LEO 2025-06-19 06:11:15 0.0001258852 470.0 (m) DEBRIS
COSMOS 2208 LEO 2025-03-17 22:01:39 0.0001655781 344.0 (m) PAYLOAD
COSMOS 773 LEO 2025-03-11 02:11:37 0.0002432995 345.0 (m) PAYLOAD
FEDSAT SSO 2024-10-01 17:50:21 0.000202173 869.0 (m) PAYLOAD

Associated space launch

The NOAA K, L and M POES satellites begin the fifth generation of improved environmental monitoring in support of NOAA missions. The instrument payload has significant improvements and additions/deletions. The instrument changes have effected the spacecraft subsystems and data formats.

NOAA 16 DEB was lifted into orbit during the mission ‘Titan II SLV | NOAA 16’, on board a Titan II SLV space rocket.

The launch took place on Sept. 21, 2000, 10:22 a.m. from Space Launch Complex 4W.

For more information about the launch, click the button.

Launch to space Titan II SLV | NOAA 16
Titan II SLV | NOAA 16

Agency: N/A

Status: Launch Successful

Launch date: Sept. 21, 2000, 10:22 a.m. UTC

Rocket: Titan II SLV

Launch pad: Space Launch Complex 4W

Location: Vandenberg SFB, CA, USA

...

Latest news about this satellite

There are no fresh news available about this satellite. Check back as we update our databases every day.


Newsletter sign-up

Weekly statistics, charts and insights to help you stay on top of the space industry.